EHI
34 42 52 57 57 53 50 47 39 27 16 11 7 3 1 1 2 5 7 7 7 5 4 3 3 1 0 0 0 0 0 0 0 1 0 0 0 0 0 0 0 0 0
37 44 54 60 60 58 55 52 44 32 21 13 7 3 1 0 1 4 7 9 8 7 5 4 3 2 1 0 0 0 0 0 0 1 0 0 0 0 0 0 0 0 0
43 50 59 64 64 63 61 58 52 41 30 20 13 8 5 2 2 3 6 8 10 10 9 7 5 4 2 1 1 0 1 1 0 0 0 0 0 0 0 0 0 0 0
48 54 64 67 67 67 65 63 59 50 40 30 24 20 13 6 3 2 4 7 10 12 11 8 6 5 4 3 2 1 2 2 1 0 0 0 0 0 0 0 0 0 0
48 55 65 69 70 70 69 66 64 56 47 39 33 27 18 8 3 2 4 7 10 11 9 6 5 5 5 3 2 2 2 3 2 1 0 0 0 0 0 0 0 0 0
48 54 62 68 71 73 73 71 68 61 51 44 36 29 21 12 6 4 7 9 10 10 9 6 5 5 5 4 3 2 3 3 3 1 0 0 0 0 0 0 0 0 0
50 54 60 67 72 76 76 74 71 64 57 49 40 32 25 16 10 6 7 10 11 10 10 9 8 7 7 6 4 4 5 4 3 3 1 1 1 1 0 0 0 1 1
53 56 62 67 73 76 77 76 73 68 63 56 47 38 30 21 14 10 8 9 11 11 12 13 12 10 9 7 5 5 5 4 4 4 3 2 2 2 1 1 1 1 1
52 56 61 68 73 75 76 75 74 70 66 61 54 45 36 28 21 17 13 10 9 9 11 14 14 12 10 8 7 7 6 5 3 4 3 3 3 3 2 2 2 2 1
48 50 56 64 71 73 73 73 71 68 65 62 56 47 40 33 27 22 17 11 8 7 10 12 13 12 11 10 9 10 9 6 5 4 4 3 3 3 3 2 3 3 3
42 45 50 57 64 67 67 67 69 68 66 63 58 50 42 37 30 24 18 13 9 9 9 12 12 12 12 11 10 11 11 10 7 6 5 4 3 2 2 3 3 3 3
37 42 48 53 57 58 58 62 67 71 71 69 64 57 49 43 36 28 21 16 13 13 13 14 13 12 11 10 10 12 13 12 9 7 6 4 3 2 2 3 3 3 3
37 43 50 55 56 54 54 58 64 69 71 71 68 62 55 50 44 35 25 20 19 19 17 16 15 14 12 10 11 13 14 12 10 8 7 6 5 5 3 3 3 3 3
41 46 51 54 56 56 56 57 59 61 64 66 65 61 57 52 46 37 30 25 24 23 19 16 15 15 14 12 11 11 10 9 9 9 9 9 9 9 6 4 2 2 2
46 48 50 51 52 54 56 57 56 56 60 62 59 55 51 45 40 36 32 28 25 23 20 17 16 16 15 11 8 7 6 6 7 7 8 9 10 10 7 4 1 0 1
45 48 49 48 49 50 52 54 55 56 59 58 53 48 43 36 33 33 33 29 25 22 20 18 18 18 16 10 4 3 4 5 6 6 6 7 8 7 5 2 1 0 0
43 45 48 47 47 47 50 54 57 57 55 51 47 43 40 35 29 29 31 29 26 22 21 20 19 18 13 7 2 2 3 4 4 4 4 5 5 4 4 3 1 0 0
42 45 47 48 47 47 51 55 56 54 50 46 44 41 41 38 32 30 29 27 25 24 23 20 16 13 9 4 1 0 1 1 1 2 3 4 3 3 4 4 2 1 0
43 45 46 47 47 47 49 51 52 49 46 44 41 40 38 35 34 32 27 23 23 24 22 17 12 9 8 6 2 1 1 1 1 2 4 3 2 1 2 3 2 1 1
41 41 43 44 44 42 42 44 44 41 38 36 34 33 31 29 28 26 23 20 20 21 19 14 10 9 10 9 5 2 3 4 4 4 4 3 2 0 0 1 1 1 0
34 35 36 37 36 34 34 34 33 31 28 25 23 23 23 22 20 19 19 18 17 16 15 13 10 9 9 9 7 3 3 6 7 6 5 4 2 0 0 0 0 0 0
26 25 26 27 28 26 25 24 24 22 20 17 15 14 15 16 15 14 14 14 13 12 12 12 10 9 8 8 6 3 2 4 6 5 4 3 1 0 0 0 0 0 0
21 20 19 20 19 17 16 17 16 15 15 13 11 9 9 11 12 11 11 11 11 10 10 10 9 8 8 6 4 3 1 1 2 3 2 1 0 0 0 0 0 0 0
19 19 17 15 13 10 10 11 10 9 10 9 9 8 7 7 8 9 10 11 11 10 9 8 6 6 7 6 4 2 1 0 0 1 1 0 0 0 0 0 0 0 0
19 18 15 11 8 7 7 7 6 5 5 6 7 6 5 4 5 7 8 8 8 8 7 6 4 4 5 4 3 2 1 0 0 0 0 0 0 0 0 0 0 0 0
19 17 13 9 7 6 7 6 4 3 4 5 5 5 4 3 4 5 6 5 4 4 3 3 2 3 2 2 1 1 0 0 0 0 0 0 0 0 0 0 0 0 0
Wind_Speed
12 12 13 14 12 11 10 10 9 7 5 3 3 3 3 2 2 3 4 4 4 4 3 2 2 2 2 2 2 2 1 0 1 2 2 2 1 2 3 3 3 5 6
11 13 12 13 13 13 12 11 10 9 7 5 4 3 3 2 3 3 4 5 5 5 4 4 3 2 2 2 2 2 1 0 1 2 1 2 3 3 2 2 4 5 4
17 16 15 14 14 14 14 12 11 9 8 6 4 2 2 1 1 2 3 4 5 5 4 4 4 3 3 3 3 2 3 1 1 1 3 2 2 3 3 3 3 3 3
15 15 15 15 16 15 13 11 11 10 9 8 6 6 5 4 4 3 4 4 5 5 5 5 5 4 3 3 3 3 2 3 2 1 1 2 3 2 2 3 2 3 4
17 18 18 17 15 14 13 12 11 10 9 8 8 7 5 4 3 3 4 4 4 5 5 5 4 4 3 4 3 3 3 3 3 2 1 1 1 2 2 3 3 3 3
16 16 15 13 12 13 13 12 12 11 10 9 8 8 7 6 5 4 5 4 3 3 5 5 4 4 4 4 4 4 4 3 3 3 3 3 2 3 3 3 3 3 4
14 13 14 14 14 15 14 13 13 12 11 10 9 9 8 7 7 6 6 5 4 3 5 5 4 4 4 5 4 4 4 4 4 4 4 3 4 3 3 2 2 3 3
13 15 16 16 15 16 15 14 14 12 12 11 10 8 8 6 5 6 5 5 4 5 5 5 5 5 5 5 4 4 4 4 4 5 4 3 4 3 3 3 2 2 3
11 13 13 14 14 15 15 15 14 12 12 12 10 8 7 7 6 6 5 4 4 4 5 5 5 5 5 5 4 3 4 4 4 4 4 4 3 3 3 3 3 3 3
11 10 11 13 13 12 13 12 12 13 11 11 10 8 7 7 6 5 5 5 4 4 4 4 4 4 4 4 4 3 3 4 4 3 4 4 3 3 3 3 3 3 4
11 11 11 11 11 10 10 11 11 11 10 10 9 8 7 7 6 6 6 5 4 4 4 4 4 4 4 4 4 4 4 4 4 4 4 5 4 3 3 2 3 3 3
8 9 9 9 9 10 9 10 10 10 10 10 9 8 7 7 7 6 5 5 5 4 4 4 4 4 4 3 3 4 4 4 5 5 4 5 4 4 3 2 3 3 3
6 6 7 8 7 7 8 8 8 8 8 8 8 7 7 7 7 6 5 5 4 4 3 3 3 3 3 2 3 3 3 3 4 4 4 4 3 4 3 3 3 3 3
6 6 7 7 7 6 7 7 7 6 7 7 7 7 7 7 7 6 5 5 5 4 4 3 3 3 3 3 2 2 2 3 4 4 4 4 3 4 4 3 3 3 2
6 5 5 5 6 6 5 6 6 6 7 7 8 8 6 6 5 5 5 5 4 5 4 4 3 3 3 3 3 3 2 3 3 3 3 3 3 2 2 1 2 2 2
6 5 5 5 5 6 6 6 5 6 6 7 6 5 5 5 5 5 5 4 3 3 3 3 3 2 2 1 2 2 1 1 2 3 3 2 2 1 1 1 1 1 2
7 6 4 4 4 4 6 6 6 5 5 4 4 4 5 5 4 5 4 4 3 3 2 2 2 2 0 1 1 1 1 0 1 1 2 2 3 2 2 2 3 3 2
7 6 4 4 4 4 5 5 5 5 5 4 4 4 4 4 4 4 4 3 3 2 2 2 2 2 1 1 1 2 1 1 1 1 1 1 2 2 2 1 2 3 3
7 6 5 4 5 5 5 7 6 6 5 4 3 3 4 4 4 4 4 3 3 2 2 2 2 2 1 2 1 2 2 2 1 2 2 2 2 4 3 2 2 2 3
7 7 6 6 6 5 5 7 6 6 5 4 3 3 4 4 4 3 3 3 3 3 3 3 2 2 2 2 2 3 2 2 1 2 2 4 4 4 3 2 2 2 3
8 8 7 7 5 5 7 8 6 5 4 4 5 5 4 4 4 4 3 3 4 4 4 4 3 2 2 2 3 3 2 2 2 1 1 2 4 4 3 3 2 1 1
8 8 7 6 5 5 7 8 6 4 4 6 6 5 5 5 5 5 4 4 5 4 4 4 3 3 3 4 4 4 3 3 3 1 1 2 4 5 4 3 4 4 3
7 7 8 7 5 5 6 7 4 4 6 7 7 6 6 6 5 5 4 4 3 3 3 3 3 2 2 3 6 5 4 4 3 2 4 5 5 5 4 6 6 4 3
6 6 8 7 6 5 5 5 4 5 7 7 6 6 6 6 6 5 4 4 3 3 3 3 2 2 2 3 2 2 2 3 3 3 5 7 8 6 6 5 5 4 3
6 6 7 7 6 5 6 5 4 6 7 7 6 6 6 6 7 7 5 5 4 2 3 2 2 2 2 2 2 2 2 2 2 3 3 4 4 4 4 4 4 4 4
7 7 7 6 6 6 6 4 4 6 7 6 5 4 4 4 5 6 6 9 7 9 9 6 4 3 3 4 6 7 7 7 7 6 4 4 3 3 3 3 3 4 4
Wind_Direction
177 172 169 168 165 164 165 164 162 167 158 149 146 147 164 172 165 173 174 171 169 161 154 154 153 142 142 160 156 130 122 119 118 73 7 333 298 238 217 206 199 209 215
174 176 174 172 173 173 172 169 171 172 172 171 163 160 159 171 176 179 180 183 178 173 172 169 171 169 153 152 156 141 129 192 132 126 91 353 336 312 245 222 211 214 212
181 180 179 178 177 178 178 176 176 175 177 170 153 146 121 110 141 183 191 199 189 184 180 179 173 179 172 181 190 171 162 190 246 171 149 157 238 297 305 254 228 213 212
185 184 181 182 184 184 180 176 176 176 177 172 167 167 174 185 196 189 191 199 195 190 186 183 177 182 185 194 205 191 180 172 217 257 204 187 177 187 298 307 273 240 226
188 187 187 187 184 181 179 178 176 179 178 178 177 177 184 189 181 177 185 197 206 205 198 191 185 188 193 201 205 197 194 185 194 209 214 211 208 189 192 276 299 295 253
194 190 188 181 179 178 179 178 178 183 182 181 182 184 184 182 178 184 189 200 208 214 210 200 198 198 200 206 209 207 205 208 209 211 204 196 198 208 197 229 261 274 275
190 190 185 182 181 181 181 181 182 188 188 187 189 190 189 185 190 190 192 193 201 215 219 209 205 207 212 216 213 211 218 218 219 222 222 218 218 203 190 203 247 265 279
189 189 188 186 184 183 183 184 187 189 190 192 195 192 191 191 194 191 190 196 202 213 213 208 209 212 215 222 217 220 227 227 230 239 232 231 235 212 204 198 202 270 290
184 188 183 181 182 184 186 187 188 189 192 194 192 193 194 193 194 189 188 192 197 207 209 207 210 215 216 217 213 224 233 234 236 242 238 237 245 230 222 209 191 194 257
179 182 178 180 183 189 190 183 186 191 191 191 193 196 196 198 193 184 192 198 203 209 202 207 214 222 229 222 214 224 237 241 246 239 241 245 245 241 230 216 211 199 206
177 183 181 178 176 183 186 184 186 188 191 191 190 192 193 194 189 192 199 199 203 203 202 205 204 212 230 227 221 231 235 239 250 253 246 247 242 244 243 227 220 215 201
171 173 172 165 168 181 185 185 183 186 190 188 186 192 191 188 192 198 198 190 193 201 206 203 202 215 227 226 224 238 240 237 244 252 252 256 259 252 246 233 232 230 216
143 148 155 154 162 176 180 177 177 184 185 181 185 188 189 190 195 196 194 194 193 199 207 202 206 220 236 237 237 238 248 250 252 251 244 253 253 259 255 239 237 241 240
112 132 146 151 154 161 161 159 164 172 171 174 184 191 195 194 194 190 188 193 191 194 199 207 207 212 217 228 237 239 253 261 261 257 250 251 245 248 249 242 240 241 246
98 113 129 142 145 143 144 147 154 164 168 175 190 198 195 185 179 183 188 192 190 197 195 197 210 218 214 225 218 222 239 255 268 277 276 267 263 248 239 238 240 235 239
117 106 110 123 131 141 146 149 154 160 162 174 186 181 174 170 172 179 182 179 181 189 182 190 198 205 227 210 188 182 230 270 280 287 293 301 325 327 338 342 322 218 225
117 108 105 119 130 138 140 146 156 147 148 163 164 159 153 153 164 171 159 160 172 175 177 183 158 163 175 128 161 150 162 218 315 324 339 357 10 10 354 353 9 359 334
110 105 100 99 100 104 113 124 127 128 133 133 141 145 144 144 142 142 149 159 158 156 162 149 143 145 81 108 160 181 150 91 61 27 12 12 1 11 16 42 31 17 1
112 109 102 96 93 94 102 104 102 107 112 114 119 124 133 137 139 148 153 152 143 136 124 121 135 132 84 77 126 135 105 83 47 46 46 38 18 5 37 63 47 19 354
98 93 86 84 81 80 92 98 100 99 98 102 104 105 116 124 131 134 133 128 124 120 109 92 93 104 85 51 98 123 117 101 69 48 37 42 43 29 45 65 51 18 341
104 96 90 84 78 81 87 86 81 84 91 91 88 85 91 104 106 103 102 109 112 104 96 87 73 65 53 53 64 96 114 119 97 67 29 18 34 35 37 53 49 359 357
105 102 95 84 73 77 86 85 79 73 80 86 80 74 74 83 89 90 84 89 103 102 96 85 64 40 34 49 55 69 90 95 103 81 34 35 41 43 46 49 32 35 47
110 104 104 94 76 74 87 89 81 78 83 82 80 75 70 65 69 83 86 83 89 98 93 86 75 48 35 37 46 57 67 75 84 71 61 57 52 52 47 37 33 37 40
107 105 103 97 87 79 83 89 82 85 93 90 84 79 78 68 62 63 66 76 74 87 91 88 79 58 39 32 27 40 63 72 69 62 56 57 55 52 44 34 27 27 30
104 100 102 102 96 88 81 76 76 97 96 92 87 84 84 85 74 66 55 63 56 78 106 99 95 90 63 359 35 75 75 88 97 87 65 53 46 38 30 29 28 24 26
106 100 99 101 99 93 84 74 76 94 102 98 91 92 98 98 97 93 74 53 63 63 66 71 87 75 83 64 66 72 70 75 86 82 69 59 52 46 34 29 23 19 18